This is the latest recevied weather packets stored in our database for station/object DH9SB-6. If no packets are shown the sender has not sent any weather packets the latest 10 day(s).
| Time | Temp. | Humidity | Pressure | Rain* | Wind** | Luminosity | Snow |
|---|---|---|---|---|---|---|---|
| 1777829578 | 19.44° C | 58% | - | 0 mm | - | - | - |
| 1777828955 | 20° C | 53% | - | 0 mm | - | - | - |
| 1777828383 | 21.11° C | 51% | - | 0 mm | - | - | - |
| 1777827755 | 21.67° C | 44% | - | 0 mm | - | - | - |
| 1777827177 | 22.22° C | 42% | - | 0 mm | - | - | - |
| 1777826554 | 22.22° C | 42% | - | 0 mm | - | - | - |
| 1777825979 | 22.22° C | 40% | - | 0 mm | - | - | - |
| 1777825354 | 22.78° C | 38% | - | 0 mm | - | - | - |
| 1777824780 | 23.33° C | 36% | - | 0 mm | - | - | - |
| 1777824154 | 23.89° C | 37% | - | 0 mm | - | - | - |
| 1777823579 | 23.89° C | 36% | - | 0 mm | - | - | - |
| 1777822957 | 23.33° C | 35% | - | 0 mm | - | - | - |
| 1777822378 | 23.89° C | 36% | - | 0 mm | - | - | - |
| 1777821756 | 24.44° C | 34% | - | 0 mm | - | - | - |
| 1777821180 | 25.56° C | 33% | - | 0 mm | - | - | - |
| 1777820554 | 26.67° C | 32% | - | 0 mm | - | - | - |
| 1777819979 | 27.78° C | 30% | - | 0 mm | - | - | - |
| 1777819356 | 27.22° C | 33% | - | 0 mm | - | - | - |
| 1777818779 | 26.11° C | 33% | - | 0 mm | - | - | - |
| 1777818154 | 25.56° C | 33% | - | 0 mm | - | - | - |
| 1777817579 | 25.56° C | 34% | - | 0 mm | - | - | - |
| 1777816955 | 25.56° C | 35% | - | 0 mm | - | - | - |
| 1777816379 | 25.56° C | 34% | - | 0 mm | - | - | - |
| 1777815755 | 25.56° C | 33% | - | 0 mm | - | - | - |
| 1777815178 | 25.56° C | 33% | - | 0 mm | - | - | - |
* Rain latest hour (hover to see other rain measurements)
** Current wind speed in m/s (hover to see current wind gust speed)